TimeCDT,TemperatureF,Dew PointF,Humidity,Sea Level PressureIn,VisibilityMPH,Wind Direction,Wind SpeedMPH,Gust SpeedMPH,PrecipitationIn,Events,Conditions,WindDirDegrees,DateUTC
12:56 AM,41.0,24.1,51,30.24,10.0,NW,5.8,-,N/A,,Clear,320,2014-03-26 05:56:00
1:56 AM,42.1,24.1,49,30.24,10.0,North,9.2,-,N/A,,Clear,350,2014-03-26 06:56:00
2:56 AM,39.9,23.0,51,30.24,10.0,North,8.1,-,N/A,,Clear,360,2014-03-26 07:56:00
3:56 AM,37.9,21.9,53,30.24,10.0,North,8.1,-,N/A,,Clear,10,2014-03-26 08:56:00
4:56 AM,37.0,21.0,52,30.25,10.0,North,4.6,-,N/A,,Clear,360,2014-03-26 09:56:00
5:56 AM,33.1,23.0,66,30.29,10.0,NNW,4.6,-,N/A,,Clear,330,2014-03-26 10:56:00
6:56 AM,32.0,24.1,73,30.30,10.0,North,4.6,-,N/A,,Clear,10,2014-03-26 11:56:00
7:56 AM,41.0,21.0,45,30.33,10.0,NNE,5.8,-,N/A,,Clear,30,2014-03-26 12:56:00
8:56 AM,46.0,21.0,37,30.34,10.0,ENE,10.4,-,N/A,,Partly Cloudy,60,2014-03-26 13:56:00
9:26 AM,48.0,19.9,33,30.41,10.0,East,8.1,-,N/A,,Scattered Clouds,80,2014-03-26 14:26:00
9:56 AM,48.9,19.0,31,30.37,10.0,ENE,9.2,-,N/A,,Scattered Clouds,70,2014-03-26 14:56:00
10:56 AM,52.0,18.0,26,30.36,10.0,ENE,10.4,-,N/A,,Mostly Cloudy,60,2014-03-26 15:56:00
11:56 AM,57.0,18.0,22,30.33,10.0,North,12.7,17.3,N/A,,Mostly Cloudy,10,2014-03-26 16:56:00
12:30 PM,55.4,17.6,23,30.36,7.0,Variable,5.8,-,N/A,,Mostly Cloudy,0,2014-03-26 17:30:00
12:56 PM,57.2,19.4,23,30.30,8.0,ENE,8.1,-,N/A,,Mostly Cloudy,70,2014-03-26 17:56:00
1:29 PM,57.0,18.0,22,30.33,3.0,Variable,5.8,-,N/A,,Smoke,0,2014-03-26 18:29:00
1:56 PM,59.0,19.0,21,30.28,4.0,NNE,8.1,-,N/A,,Smoke,20,2014-03-26 18:56:00
2:56 PM,59.0,19.0,21,30.25,5.0,Variable,6.9,-,N/A,,Smoke,0,2014-03-26 19:56:00
3:56 PM,59.0,19.0,21,30.24,6.0,NNE,5.8,-,N/A,,Smoke,30,2014-03-26 20:56:00
4:56 PM,57.9,19.9,23,30.23,9.0,ENE,4.6,-,N/A,,Overcast,60,2014-03-26 21:56:00
5:56 PM,57.0,21.0,25,30.21,10.0,ENE,5.8,-,N/A,,Overcast,70,2014-03-26 22:56:00
6:56 PM,53.1,32.0,45,30.23,10.0,South,6.9,-,N/A,,Overcast,180,2014-03-26 23:56:00
7:56 PM,48.9,33.1,54,30.22,10.0,South,4.6,-,N/A,,Mostly Cloudy,170,2014-03-27 00:56:00
8:56 PM,48.0,33.1,56,30.22,10.0,SE,3.5,-,N/A,,Scattered Clouds,140,2014-03-27 01:56:00
9:56 PM,46.0,34.0,63,30.22,10.0,Calm,Calm,-,N/A,,Mostly Cloudy,0,2014-03-27 02:56:00
10:56 PM,50.0,34.0,54,30.20,10.0,East,4.6,-,N/A,,Overcast,80,2014-03-27 03:56:00
11:56 PM,45.0,35.1,68,30.21,10.0,Calm,Calm,-,N/A,,Scattered Clouds,0,2014-03-27 04:56:00